Retour au catalogue

STARLINK-30340

ActifCommunicationsVLEO
NORAD 57884·PAYLOAD·🇺🇸 United States

Lancé Sep 16, 2023 depuis Cape Canaveral Space Force Station

Loading…

Prochains Passages (prochaines 24 heures)

TLE

FraisSource: CelesTrak SupGP

Époque: Sep 14, 2026, 22:02 UTC

1 57884C 23144W   26257.91854167  .00003049  00000+0  11039-3 0  2578
2 57884  43.0005 296.2455 0001604 273.5344 345.1211 15.27593849    19

Suivez STARLINK-30340 en temps réel avec AllMySat

Download on the App Store